Year,Month,Day,Hour,Minute,Value (Times are PST for temperature in C)
2011,04,26,00,00,3.90
2011,04,26,00,01,3.90
2011,04,26,00,02,3.90
2011,04,26,00,03,3.90
2011,04,26,00,04,3.90
2011,04,26,00,05,3.90
2011,04,26,00,06,3.80
2011,04,26,00,07,3.80
2011,04,26,00,08,3.80
2011,04,26,00,09,3.80
2011,04,26,00,10,3.80
2011,04,26,00,11,3.80
2011,04,26,00,12,3.80
2011,04,26,00,13,3.80
2011,04,26,00,14,3.80
2011,04,26,00,15,3.70
2011,04,26,00,16,3.70
2011,04,26,00,17,3.70
2011,04,26,00,18,3.70
2011,04,26,00,19,3.70
2011,04,26,00,20,3.70
2011,04,26,00,21,3.70
2011,04,26,00,22,3.70
2011,04,26,00,23,3.70
2011,04,26,00,24,3.70
2011,04,26,00,25,3.70
2011,04,26,00,26,3.70
2011,04,26,00,27,3.70
2011,04,26,00,28,3.70
2011,04,26,00,29,3.70
2011,04,26,00,30,3.70
2011,04,26,00,31,3.70
2011,04,26,00,32,3.70
2011,04,26,00,33,3.70
2011,04,26,00,34,3.70
2011,04,26,00,35,3.70
2011,04,26,00,36,3.70
2011,04,26,00,37,3.70
2011,04,26,00,38,3.70
2011,04,26,00,39,3.60
2011,04,26,00,40,3.60
2011,04,26,00,41,3.60
2011,04,26,00,42,3.60
2011,04,26,00,43,3.60
2011,04,26,00,44,3.60
2011,04,26,00,45,3.60
2011,04,26,00,46,3.60
2011,04,26,00,47,3.60
2011,04,26,00,48,3.60
2011,04,26,00,49,3.60
2011,04,26,00,50,3.70
2011,04,26,00,51,3.70
2011,04,26,00,52,3.70
2011,04,26,00,53,3.70
2011,04,26,00,54,3.70
2011,04,26,00,55,3.70
2011,04,26,00,56,3.70
2011,04,26,00,57,3.60
2011,04,26,00,58,3.60
2011,04,26,00,59,3.60
2011,04,26,01,00,3.60
2011,04,26,01,01,3.60
2011,04,26,01,02,3.60
2011,04,26,01,03,3.60
2011,04,26,01,04,3.60
2011,04,26,01,05,3.60
2011,04,26,01,06,3.60
2011,04,26,01,07,3.60
2011,04,26,01,08,3.60
2011,04,26,01,09,3.60
2011,04,26,01,10,3.60
2011,04,26,01,11,3.60
2011,04,26,01,12,3.60
2011,04,26,01,13,3.60
2011,04,26,01,14,3.60
2011,04,26,01,15,3.60
2011,04,26,01,16,3.60
2011,04,26,01,17,3.50
2011,04,26,01,18,3.50
2011,04,26,01,19,3.50
2011,04,26,01,20,3.40
2011,04,26,01,21,3.40
2011,04,26,01,22,3.40
2011,04,26,01,23,3.40
2011,04,26,01,24,3.30
2011,04,26,01,25,3.30
2011,04,26,01,26,3.30
2011,04,26,01,27,3.30
2011,04,26,01,28,3.30
2011,04,26,01,29,3.20
2011,04,26,01,30,3.20
2011,04,26,01,31,3.20
2011,04,26,01,32,3.20
2011,04,26,01,33,3.20
2011,04,26,01,34,3.20
2011,04,26,01,35,3.20
2011,04,26,01,36,3.10
2011,04,26,01,37,3.10
2011,04,26,01,38,3.10
2011,04,26,01,39,3.10
2011,04,26,01,40,3.10
2011,04,26,01,41,3.10
2011,04,26,01,42,3.10
2011,04,26,01,43,3.10
2011,04,26,01,44,3.00
2011,04,26,01,45,3.00
2011,04,26,01,46,2.90
2011,04,26,01,47,2.90
2011,04,26,01,48,2.90
2011,04,26,01,49,2.90
2011,04,26,01,50,2.90
2011,04,26,01,51,2.80
2011,04,26,01,52,2.80
2011,04,26,01,53,2.80
2011,04,26,01,54,2.80
2011,04,26,01,55,2.80
2011,04,26,01,56,2.80
2011,04,26,01,57,2.80
2011,04,26,01,58,2.70
2011,04,26,01,59,2.70
2011,04,26,02,00,2.70
2011,04,26,02,01,2.70
2011,04,26,02,02,2.70
2011,04,26,02,03,2.70
2011,04,26,02,04,2.70
2011,04,26,02,05,2.70
2011,04,26,02,06,2.70
2011,04,26,02,07,2.60
2011,04,26,02,08,2.60
2011,04,26,02,09,2.60
2011,04,26,02,10,2.60
2011,04,26,02,11,2.60
2011,04,26,02,12,2.60
2011,04,26,02,13,2.60
2011,04,26,02,14,2.60
2011,04,26,02,15,2.60
2011,04,26,02,16,2.60
2011,04,26,02,17,2.50
2011,04,26,02,18,2.50
2011,04,26,02,19,2.50
2011,04,26,02,20,2.50
2011,04,26,02,21,2.50
2011,04,26,02,22,2.50
2011,04,26,02,23,2.40
2011,04,26,02,24,2.40
2011,04,26,02,25,2.40
2011,04,26,02,26,2.40
2011,04,26,02,27,2.40
2011,04,26,02,28,2.40
2011,04,26,02,29,2.40
2011,04,26,02,30,2.30
2011,04,26,02,31,2.30
2011,04,26,02,32,2.30
2011,04,26,02,33,2.30
2011,04,26,02,34,2.30
2011,04,26,02,35,2.30
2011,04,26,02,36,2.30
2011,04,26,02,37,2.30
2011,04,26,02,38,2.30
2011,04,26,02,39,2.20
2011,04,26,02,40,2.20
2011,04,26,02,41,2.20
2011,04,26,02,42,2.20
2011,04,26,02,43,2.20
2011,04,26,02,44,2.20
2011,04,26,02,45,2.20
2011,04,26,02,46,2.20
2011,04,26,02,47,2.20
2011,04,26,02,48,2.10
2011,04,26,02,49,2.10
2011,04,26,02,50,2.10
2011,04,26,02,51,2.10
2011,04,26,02,52,2.10
2011,04,26,02,53,2.10
2011,04,26,02,54,2.10
2011,04,26,02,55,2.00
2011,04,26,02,56,2.00
2011,04,26,02,57,2.00
2011,04,26,02,58,2.00
2011,04,26,02,59,1.90
2011,04,26,03,00,1.90
2011,04,26,03,01,1.90
2011,04,26,03,02,1.90
2011,04,26,03,06,1.80
2011,04,26,03,07,1.80
2011,04,26,03,08,1.80
2011,04,26,03,09,1.80
2011,04,26,03,10,1.80
2011,04,26,03,11,1.80
2011,04,26,03,12,1.80
2011,04,26,03,13,1.80
2011,04,26,03,14,1.80
2011,04,26,03,15,1.80
2011,04,26,03,16,1.80
2011,04,26,03,17,1.80
2011,04,26,03,18,1.80
2011,04,26,03,19,1.80
2011,04,26,03,20,1.90
2011,04,26,03,21,1.90
2011,04,26,03,22,1.90
2011,04,26,03,23,1.90
2011,04,26,03,24,1.90
2011,04,26,03,25,1.90
2011,04,26,03,26,1.90
2011,04,26,03,27,1.90
2011,04,26,03,28,1.90
2011,04,26,03,29,2.00
2011,04,26,03,30,2.00
2011,04,26,03,31,2.00
2011,04,26,03,32,2.00
2011,04,26,03,33,2.00
2011,04,26,03,34,2.00
2011,04,26,03,35,2.00
2011,04,26,03,36,2.00
2011,04,26,03,37,2.00
2011,04,26,03,38,2.00
2011,04,26,03,39,2.00
2011,04,26,03,40,2.00
2011,04,26,03,41,2.00
2011,04,26,03,42,2.00
2011,04,26,03,43,1.90
2011,04,26,03,44,1.90
2011,04,26,03,45,1.90
2011,04,26,03,46,1.90
2011,04,26,03,47,1.90
2011,04,26,03,48,1.90
2011,04,26,03,49,1.90
2011,04,26,03,50,1.90
2011,04,26,03,51,1.90
2011,04,26,03,52,1.90
2011,04,26,03,53,1.90
2011,04,26,03,54,1.90
2011,04,26,03,55,1.90
2011,04,26,03,56,1.90
2011,04,26,03,57,1.90
2011,04,26,03,58,1.90
2011,04,26,03,59,1.90
2011,04,26,04,00,1.90
2011,04,26,04,01,1.90
2011,04,26,04,02,1.80
2011,04,26,04,03,1.80
2011,04,26,04,04,1.80
2011,04,26,04,05,1.80
2011,04,26,04,06,1.80
2011,04,26,04,07,1.80
2011,04,26,04,08,1.80
2011,04,26,04,09,1.80
2011,04,26,04,10,1.80
2011,04,26,04,11,1.80
2011,04,26,04,12,1.80
2011,04,26,04,13,1.80
2011,04,26,04,14,1.80
2011,04,26,04,15,1.80
2011,04,26,04,16,1.70
2011,04,26,04,17,1.70
2011,04,26,04,18,1.70
2011,04,26,04,19,1.70
2011,04,26,04,20,1.70
2011,04,26,04,21,1.70
2011,04,26,04,22,1.70
2011,04,26,04,23,1.70
2011,04,26,04,24,1.70
2011,04,26,04,25,1.70
2011,04,26,04,26,1.70
2011,04,26,04,27,1.70
2011,04,26,04,28,1.70
2011,04,26,04,29,1.70
2011,04,26,04,30,1.70
2011,04,26,04,31,1.70
2011,04,26,04,32,1.70
2011,04,26,04,33,1.70
2011,04,26,04,34,1.70
2011,04,26,04,35,1.60
2011,04,26,04,36,1.60
2011,04,26,04,37,1.60
2011,04,26,04,38,1.60
2011,04,26,04,39,1.60
2011,04,26,04,40,1.60
2011,04,26,04,41,1.60
2011,04,26,04,42,1.60
2011,04,26,04,43,1.50
2011,04,26,04,44,1.50
2011,04,26,04,45,1.50
2011,04,26,04,46,1.40
2011,04,26,04,47,1.40
2011,04,26,04,48,1.40
2011,04,26,04,49,1.40
2011,04,26,04,50,1.40
2011,04,26,04,51,1.40
2011,04,26,04,52,1.40
2011,04,26,04,53,1.40
2011,04,26,04,54,1.40
2011,04,26,04,55,1.30
2011,04,26,04,56,1.30
2011,04,26,04,57,1.30
2011,04,26,04,58,1.30
2011,04,26,04,59,1.30
2011,04,26,05,00,1.30
2011,04,26,05,01,1.30
2011,04,26,05,02,1.30
2011,04,26,05,03,1.40
2011,04,26,05,04,1.40
2011,04,26,05,05,1.40
2011,04,26,05,06,1.40
2011,04,26,05,07,1.40
2011,04,26,05,08,1.40
2011,04,26,05,09,1.40
2011,04,26,05,10,1.40
2011,04,26,05,11,1.40
2011,04,26,05,12,1.40
2011,04,26,05,13,1.40
2011,04,26,05,14,1.50
2011,04,26,05,15,1.40
2011,04,26,05,16,1.40
2011,04,26,05,17,1.40
2011,04,26,05,18,1.50
2011,04,26,05,19,1.50
2011,04,26,05,20,1.50
2011,04,26,05,21,1.60
2011,04,26,05,22,1.60
2011,04,26,05,23,1.60
2011,04,26,05,24,1.70
2011,04,26,05,25,1.70
2011,04,26,05,26,1.80
2011,04,26,05,27,1.80
2011,04,26,05,28,1.80
2011,04,26,05,29,1.90
2011,04,26,05,30,1.90
2011,04,26,05,31,1.90
2011,04,26,05,32,1.90
2011,04,26,05,33,1.90
2011,04,26,05,34,1.90
2011,04,26,05,35,1.90
2011,04,26,05,36,1.80
2011,04,26,05,37,1.80
2011,04,26,05,38,1.70
2011,04,26,05,39,1.70
2011,04,26,05,40,1.60
2011,04,26,05,41,1.60
2011,04,26,05,42,1.50
2011,04,26,05,43,1.40
2011,04,26,05,44,1.40
2011,04,26,05,45,1.30
2011,04,26,05,46,1.30
2011,04,26,05,47,1.30
2011,04,26,05,48,1.30
2011,04,26,05,49,1.30
2011,04,26,05,50,1.30
2011,04,26,05,51,1.20
2011,04,26,05,52,1.20
2011,04,26,05,53,1.20
2011,04,26,05,54,1.20
2011,04,26,05,55,1.10
2011,04,26,05,56,1.10
2011,04,26,05,57,1.10
2011,04,26,05,58,1.10
2011,04,26,05,59,1.10
2011,04,26,06,00,1.10
2011,04,26,06,01,1.10
2011,04,26,06,02,1.10
2011,04,26,06,03,1.10
2011,04,26,06,04,1.10
2011,04,26,06,05,1.10
2011,04,26,06,06,1.10
2011,04,26,06,07,1.10
2011,04,26,06,08,1.10
2011,04,26,06,09,1.10
2011,04,26,06,10,1.10
2011,04,26,06,11,1.20
2011,04,26,06,12,1.20
2011,04,26,06,13,1.20
2011,04,26,06,14,1.30
2011,04,26,06,15,1.30
2011,04,26,06,16,1.30
2011,04,26,06,17,1.30
2011,04,26,06,18,1.30
2011,04,26,06,19,1.30
2011,04,26,06,20,1.30
2011,04,26,06,21,1.30
2011,04,26,06,22,1.30
2011,04,26,06,23,1.20
2011,04,26,06,24,1.20
2011,04,26,06,25,1.20
2011,04,26,06,26,1.20
2011,04,26,06,27,1.20
2011,04,26,06,28,1.20
2011,04,26,06,29,1.20
2011,04,26,06,30,1.20
2011,04,26,06,31,1.20
2011,04,26,06,32,1.20
2011,04,26,06,33,1.20
2011,04,26,06,34,1.20
2011,04,26,06,35,1.20
2011,04,26,06,36,1.20
2011,04,26,06,37,1.20
2011,04,26,06,38,1.20
2011,04,26,06,39,1.20
2011,04,26,06,40,1.20
2011,04,26,06,41,1.20
2011,04,26,06,42,1.20
2011,04,26,06,43,1.20
2011,04,26,06,44,1.20
2011,04,26,06,45,1.20
2011,04,26,06,46,1.20
2011,04,26,06,47,1.20
2011,04,26,06,48,1.20
2011,04,26,06,49,1.20
2011,04,26,06,50,1.20
2011,04,26,06,51,1.20
2011,04,26,06,52,1.20
2011,04,26,06,53,1.20
2011,04,26,06,54,1.20
2011,04,26,06,55,1.20
2011,04,26,06,56,1.20
2011,04,26,06,57,1.20
2011,04,26,06,58,1.20
2011,04,26,06,59,1.20
2011,04,26,07,00,1.20
2011,04,26,07,01,1.20
2011,04,26,07,02,1.20
2011,04,26,07,03,1.20
2011,04,26,07,04,1.20
2011,04,26,07,05,1.30
2011,04,26,07,06,1.30
2011,04,26,07,07,1.30
2011,04,26,07,08,1.30
2011,04,26,07,09,1.30
2011,04,26,07,10,1.30
2011,04,26,07,11,1.30
2011,04,26,07,12,1.30
2011,04,26,07,13,1.30
2011,04,26,07,14,1.30
2011,04,26,07,15,1.30
2011,04,26,07,16,1.30
2011,04,26,07,17,1.40
2011,04,26,07,18,1.40
2011,04,26,07,19,1.50
2011,04,26,07,20,1.60
2011,04,26,07,21,1.60
2011,04,26,07,22,1.70
2011,04,26,07,23,1.70
2011,04,26,07,24,1.70
2011,04,26,07,25,1.70
2011,04,26,07,26,1.80
2011,04,26,07,27,1.80
2011,04,26,07,28,1.80
2011,04,26,07,29,1.80
2011,04,26,07,30,1.90
2011,04,26,07,31,1.90
2011,04,26,07,32,1.90
2011,04,26,07,33,1.90
2011,04,26,07,34,1.90
2011,04,26,07,35,2.00
2011,04,26,07,36,2.00
2011,04,26,07,37,2.00
2011,04,26,07,38,2.10
2011,04,26,07,39,2.10
2011,04,26,07,40,2.20
2011,04,26,07,41,2.30
2011,04,26,07,42,2.30
2011,04,26,07,43,2.40
2011,04,26,07,44,2.40
2011,04,26,07,45,2.50
2011,04,26,07,46,2.60
2011,04,26,07,47,2.60
2011,04,26,07,48,2.70
2011,04,26,07,49,2.80
2011,04,26,07,50,2.80
2011,04,26,07,51,2.80
2011,04,26,07,52,2.90
2011,04,26,07,53,3.00
2011,04,26,07,54,3.10
2011,04,26,07,55,3.20
2011,04,26,07,56,3.30
2011,04,26,07,57,3.40
2011,04,26,07,58,3.50
2011,04,26,07,59,3.60
2011,04,26,08,00,3.70
2011,04,26,08,01,3.80
2011,04,26,08,02,3.90
2011,04,26,08,03,4.00
2011,04,26,08,04,4.00
2011,04,26,08,05,4.10
2011,04,26,08,06,4.20
2011,04,26,08,07,4.30
2011,04,26,08,08,4.40
2011,04,26,08,09,4.50
2011,04,26,08,10,4.60
2011,04,26,08,11,4.70
2011,04,26,08,12,4.80
2011,04,26,08,13,4.80
2011,04,26,08,14,4.80
2011,04,26,08,15,4.90
2011,04,26,08,16,4.90
2011,04,26,08,17,5.00
2011,04,26,08,18,5.00
2011,04,26,08,19,5.10
2011,04,26,08,20,5.10
2011,04,26,08,21,5.20
2011,04,26,08,22,5.20
2011,04,26,08,23,5.30
2011,04,26,08,24,5.30
2011,04,26,08,25,5.40
2011,04,26,08,26,5.40
2011,04,26,08,27,5.40
2011,04,26,08,28,5.40
2011,04,26,08,29,5.50
2011,04,26,08,30,5.50
2011,04,26,08,31,5.60
2011,04,26,08,32,5.60
2011,04,26,08,33,5.70
2011,04,26,08,34,5.70
2011,04,26,08,35,5.80
2011,04,26,08,36,5.80
2011,04,26,08,37,5.90
2011,04,26,08,38,6.00
2011,04,26,08,39,6.00
2011,04,26,08,40,6.10
2011,04,26,08,41,6.10
2011,04,26,08,42,6.20
2011,04,26,08,43,6.20
2011,04,26,08,44,6.20
2011,04,26,08,45,6.30
2011,04,26,08,46,6.30
2011,04,26,08,47,6.30
2011,04,26,08,48,6.40
2011,04,26,08,49,6.40
2011,04,26,08,50,6.50
2011,04,26,08,51,6.50
2011,04,26,08,52,6.60
2011,04,26,08,53,6.60
2011,04,26,08,54,6.70
2011,04,26,08,55,6.70
2011,04,26,08,56,6.70
2011,04,26,08,57,6.80
2011,04,26,08,58,6.80
2011,04,26,08,59,6.80
2011,04,26,09,00,6.90
2011,04,26,09,01,7.00
2011,04,26,09,02,7.00
2011,04,26,09,03,7.10
2011,04,26,09,04,7.10
2011,04,26,09,05,7.20
2011,04,26,09,06,7.20
2011,04,26,09,07,7.20
2011,04,26,09,08,7.20
2011,04,26,09,09,7.20
2011,04,26,09,10,7.30
2011,04,26,09,11,7.40
2011,04,26,09,12,7.40
2011,04,26,09,13,7.50
2011,04,26,09,14,7.60
2011,04,26,09,15,7.60
2011,04,26,09,16,7.70
2011,04,26,09,17,7.70
2011,04,26,09,18,7.80
2011,04,26,09,19,7.90
2011,04,26,09,20,8.00
2011,04,26,09,21,8.20
2011,04,26,09,22,8.20
2011,04,26,09,23,8.30
2011,04,26,09,24,8.40
2011,04,26,09,25,8.50
2011,04,26,09,26,8.50
2011,04,26,09,27,8.50
2011,04,26,09,28,8.60
2011,04,26,09,29,8.60
2011,04,26,09,30,8.60
2011,04,26,09,31,8.60
2011,04,26,09,32,8.60
2011,04,26,09,33,8.60
2011,04,26,09,34,8.70
2011,04,26,09,35,8.70
2011,04,26,09,36,8.70
2011,04,26,09,37,8.80
2011,04,26,09,38,8.80
2011,04,26,09,39,8.80
2011,04,26,09,40,8.80
2011,04,26,09,41,8.80
2011,04,26,09,42,8.80
2011,04,26,09,43,8.90
2011,04,26,09,44,9.00
2011,04,26,09,45,9.00
2011,04,26,09,46,9.10
2011,04,26,09,47,9.20
2011,04,26,09,48,9.30
2011,04,26,09,49,9.30
2011,04,26,09,50,9.50
2011,04,26,09,51,9.50
2011,04,26,09,52,9.60
2011,04,26,09,53,9.70
2011,04,26,09,54,9.80
2011,04,26,09,55,9.80
2011,04,26,09,56,9.90
2011,04,26,09,57,10.00
2011,04,26,09,58,10.10
2011,04,26,09,59,10.20
2011,04,26,10,00,10.30
2011,04,26,10,01,10.40
2011,04,26,10,02,10.50
2011,04,26,10,03,10.50
2011,04,26,10,04,10.60
2011,04,26,10,05,10.70
2011,04,26,10,06,10.80
2011,04,26,10,07,10.80
2011,04,26,10,08,10.90
2011,04,26,10,09,11.00
2011,04,26,10,10,11.00
2011,04,26,10,11,11.00
2011,04,26,10,12,11.00
2011,04,26,10,13,11.00
2011,04,26,10,14,11.00
2011,04,26,10,15,11.00
2011,04,26,10,16,10.90
2011,04,26,10,17,10.80
2011,04,26,10,18,10.80
2011,04,26,10,19,10.70
2011,04,26,10,20,10.70
2011,04,26,10,21,10.60
2011,04,26,10,22,10.60
2011,04,26,10,23,10.60
2011,04,26,10,24,10.60
2011,04,26,10,25,10.50
2011,04,26,10,26,10.50
2011,04,26,10,27,10.40
2011,04,26,10,28,10.40
2011,04,26,10,29,10.40
2011,04,26,10,30,10.40
2011,04,26,10,31,10.40
2011,04,26,10,32,10.40
2011,04,26,10,33,10.40
2011,04,26,10,34,10.40
2011,04,26,10,35,10.50
2011,04,26,10,36,10.50
2011,04,26,10,37,10.50
2011,04,26,10,38,10.60
2011,04,26,10,39,10.60
2011,04,26,10,40,10.70
2011,04,26,10,41,10.70
2011,04,26,10,42,10.80
2011,04,26,10,43,10.80
2011,04,26,10,44,10.80
2011,04,26,10,45,10.90
2011,04,26,10,46,10.80
2011,04,26,10,47,10.80
2011,04,26,10,48,10.70
2011,04,26,10,49,10.70
2011,04,26,10,50,10.70
2011,04,26,10,51,10.70
2011,04,26,10,52,10.70
2011,04,26,10,53,10.70
2011,04,26,10,54,10.70
2011,04,26,10,55,10.70
2011,04,26,10,56,10.70
2011,04,26,10,57,10.70
2011,04,26,10,58,10.70
2011,04,26,10,59,10.60
2011,04,26,11,00,10.60
2011,04,26,11,01,10.60
2011,04,26,11,02,10.60
2011,04,26,11,03,10.60
2011,04,26,11,04,10.70
2011,04,26,11,05,10.70
2011,04,26,11,06,10.70
2011,04,26,11,07,10.70
2011,04,26,11,08,10.70
2011,04,26,11,09,10.70
2011,04,26,11,10,10.80
2011,04,26,11,11,10.80
2011,04,26,11,12,10.80
2011,04,26,11,13,10.80
2011,04,26,11,14,10.90
2011,04,26,11,15,11.00
2011,04,26,11,16,11.10
2011,04,26,11,17,11.10
2011,04,26,11,18,11.10
2011,04,26,11,19,11.10
2011,04,26,11,20,11.10
2011,04,26,11,21,11.10
2011,04,26,11,22,11.10
2011,04,26,11,23,11.10
2011,04,26,11,24,11.10
2011,04,26,11,25,11.10
2011,04,26,11,26,11.10
2011,04,26,11,27,11.00
2011,04,26,11,28,11.00
2011,04,26,11,29,10.90
2011,04,26,11,30,10.90
2011,04,26,11,31,10.90
2011,04,26,11,32,10.90
2011,04,26,11,33,10.90
2011,04,26,11,34,10.90
2011,04,26,11,35,11.00
2011,04,26,11,36,11.00
2011,04,26,11,37,11.10
2011,04,26,11,38,11.10
2011,04,26,11,39,11.10
2011,04,26,11,40,11.20
2011,04,26,11,41,11.20
2011,04,26,11,42,11.20
2011,04,26,11,43,11.20
2011,04,26,11,44,11.30
2011,04,26,11,45,11.30
2011,04,26,11,46,11.40
2011,04,26,11,47,11.30
2011,04,26,11,48,11.30
2011,04,26,11,49,11.20
2011,04,26,11,50,11.20
2011,04,26,11,51,11.10
2011,04,26,11,52,11.00
2011,04,26,11,53,10.90
2011,04,26,11,54,10.80
2011,04,26,11,55,10.80
2011,04,26,11,56,10.70
2011,04,26,11,57,10.60
2011,04,26,11,58,10.60
2011,04,26,11,59,10.60
2011,04,26,12,00,10.50
2011,04,26,12,01,10.50
2011,04,26,12,02,10.40
2011,04,26,12,03,10.40
2011,04,26,12,04,10.30
2011,04,26,12,05,10.30
2011,04,26,12,06,10.30
2011,04,26,12,07,10.20
2011,04,26,12,08,10.20
2011,04,26,12,09,10.20
2011,04,26,12,10,10.20
2011,04,26,12,11,10.20
2011,04,26,12,12,10.20
2011,04,26,12,13,10.30
2011,04,26,12,14,10.30
2011,04,26,12,15,10.30
2011,04,26,12,16,10.40
2011,04,26,12,17,10.40
2011,04,26,12,18,10.40
2011,04,26,12,19,10.50
2011,04,26,12,20,10.50
2011,04,26,12,21,10.50
2011,04,26,12,22,10.60
2011,04,26,12,23,10.50
2011,04,26,12,24,10.50
2011,04,26,12,25,10.50
2011,04,26,12,26,10.60
2011,04,26,12,27,10.60
2011,04,26,12,28,10.60
2011,04,26,12,29,10.60
2011,04,26,12,30,10.60
2011,04,26,12,31,10.70
2011,04,26,12,32,10.70
2011,04,26,12,33,10.70
2011,04,26,12,34,10.70
2011,04,26,12,35,10.70
2011,04,26,12,36,10.70
2011,04,26,12,37,10.80
2011,04,26,12,38,10.80
2011,04,26,12,39,10.90
2011,04,26,12,40,11.00
2011,04,26,12,41,11.00
2011,04,26,12,42,11.10
2011,04,26,12,43,11.20
2011,04,26,12,44,11.30
2011,04,26,12,45,11.30
2011,04,26,12,46,11.30
2011,04,26,12,47,11.40
2011,04,26,12,48,11.40
2011,04,26,12,49,11.40
2011,04,26,12,50,11.50
2011,04,26,12,51,11.50
2011,04,26,12,52,11.60
2011,04,26,12,53,11.70
2011,04,26,12,54,11.80
2011,04,26,12,55,11.80
2011,04,26,12,56,11.90
2011,04,26,12,57,11.90
2011,04,26,12,58,12.00
2011,04,26,12,59,12.10
2011,04,26,13,00,12.10
2011,04,26,13,01,12.20
2011,04,26,13,02,12.30
2011,04,26,13,03,12.30
2011,04,26,13,04,12.40
2011,04,26,13,05,12.40
2011,04,26,13,06,12.50
2011,04,26,13,07,12.50
2011,04,26,13,08,12.50
2011,04,26,13,09,12.60
2011,04,26,13,10,12.60
2011,04,26,13,11,12.50
2011,04,26,13,12,12.40
2011,04,26,13,13,12.50
2011,04,26,13,14,12.50
2011,04,26,13,15,12.50
2011,04,26,13,16,12.40
2011,04,26,13,17,12.40
2011,04,26,13,18,12.40
2011,04,26,13,19,12.40
2011,04,26,13,20,12.40
2011,04,26,13,21,12.50
2011,04,26,13,22,12.60
2011,04,26,13,23,12.60
2011,04,26,13,24,12.70
2011,04,26,13,25,12.70
2011,04,26,13,26,12.70
2011,04,26,13,27,12.70
2011,04,26,13,28,12.70
2011,04,26,13,29,12.60
2011,04,26,13,30,12.60
2011,04,26,13,31,12.50
2011,04,26,13,32,12.50
2011,04,26,13,33,12.50
2011,04,26,13,34,12.50
2011,04,26,13,35,12.50
2011,04,26,13,36,12.60
2011,04,26,13,37,12.60
2011,04,26,13,38,12.50
2011,04,26,13,39,12.50
2011,04,26,13,40,12.50
2011,04,26,13,41,12.40
2011,04,26,13,42,12.50
2011,04,26,13,43,12.50
2011,04,26,13,44,12.60
2011,04,26,13,45,12.70
2011,04,26,13,46,12.70
2011,04,26,13,47,12.70
2011,04,26,13,48,12.70
2011,04,26,13,49,12.70
2011,04,26,13,50,12.70
2011,04,26,13,51,12.50
2011,04,26,13,52,12.30
2011,04,26,13,53,12.20
2011,04,26,13,54,12.10
2011,04,26,13,55,12.00
2011,04,26,13,56,11.90
2011,04,26,13,57,11.80
2011,04,26,13,58,11.60
2011,04,26,13,59,11.50
2011,04,26,14,00,11.40
2011,04,26,14,01,11.30
2011,04,26,14,02,11.20
2011,04,26,14,03,11.10
2011,04,26,14,04,11.00
2011,04,26,14,05,11.00
2011,04,26,14,06,11.00
2011,04,26,14,07,11.00
2011,04,26,14,08,11.00
2011,04,26,14,09,11.00
2011,04,26,14,10,11.00
2011,04,26,14,11,11.00
2011,04,26,14,12,11.00
2011,04,26,14,13,10.90
2011,04,26,14,14,10.80
2011,04,26,14,15,10.80
2011,04,26,14,16,10.80
2011,04,26,14,17,10.80
2011,04,26,14,18,10.80
2011,04,26,14,19,10.80
2011,04,26,14,20,10.70
2011,04,26,14,21,10.70
2011,04,26,14,22,10.60
2011,04,26,14,23,10.60
2011,04,26,14,24,10.60
2011,04,26,14,25,10.60
2011,04,26,14,26,10.60
2011,04,26,14,27,10.60
2011,04,26,14,28,10.60
2011,04,26,14,29,10.60
2011,04,26,14,30,10.60
2011,04,26,14,31,10.60
2011,04,26,14,32,10.60
2011,04,26,14,33,10.60
2011,04,26,14,34,10.60
2011,04,26,14,35,10.50
2011,04,26,14,36,10.50
2011,04,26,14,37,10.50
2011,04,26,14,38,10.50
2011,04,26,14,39,10.60
2011,04,26,14,40,10.60
2011,04,26,14,41,10.60
2011,04,26,14,42,10.50
2011,04,26,14,43,10.50
2011,04,26,14,44,10.50
2011,04,26,14,45,10.50
2011,04,26,14,46,10.50
2011,04,26,14,47,10.60
2011,04,26,14,48,10.60
2011,04,26,14,49,10.60
2011,04,26,14,50,10.60
2011,04,26,14,51,10.60
2011,04,26,14,52,10.60
2011,04,26,14,53,10.60
2011,04,26,14,54,10.60
2011,04,26,14,55,10.60
2011,04,26,14,56,10.60
2011,04,26,14,57,10.60
2011,04,26,14,58,10.60
2011,04,26,14,59,10.60
2011,04,26,15,00,10.60
2011,04,26,15,01,10.70
2011,04,26,15,02,10.70
2011,04,26,15,03,10.70
2011,04,26,15,04,10.70
2011,04,26,15,05,10.80
2011,04,26,15,06,10.90
2011,04,26,15,07,10.90
2011,04,26,15,08,11.00
2011,04,26,15,09,11.10
2011,04,26,15,10,11.10
2011,04,26,15,11,11.10
2011,04,26,15,12,11.10
2011,04,26,15,13,11.10
2011,04,26,15,14,11.10
2011,04,26,15,15,11.10
2011,04,26,15,16,11.10
2011,04,26,15,17,11.10
2011,04,26,15,18,11.10
2011,04,26,15,19,11.00
2011,04,26,15,20,11.00
2011,04,26,15,21,11.00
2011,04,26,15,22,10.90
2011,04,26,15,23,10.90
2011,04,26,15,24,10.90
2011,04,26,15,25,10.90
2011,04,26,15,26,10.90
2011,04,26,15,27,10.90
2011,04,26,15,28,10.90
2011,04,26,15,29,10.90
2011,04,26,15,30,10.90
2011,04,26,15,31,10.90
2011,04,26,15,32,10.90
2011,04,26,15,33,11.00
2011,04,26,15,34,11.00
2011,04,26,15,35,11.10
2011,04,26,15,36,11.10
2011,04,26,15,37,11.10
2011,04,26,15,38,11.10
2011,04,26,15,39,11.20
2011,04,26,15,40,11.20
2011,04,26,15,41,11.20
2011,04,26,15,42,11.30
2011,04,26,15,43,11.30
2011,04,26,15,44,11.30
2011,04,26,15,45,11.40
2011,04,26,15,46,11.50
2011,04,26,15,47,11.50
2011,04,26,15,48,11.60
2011,04,26,15,49,11.70
2011,04,26,15,50,11.80
2011,04,26,15,51,11.80
2011,04,26,15,52,11.80
2011,04,26,15,53,11.90
2011,04,26,15,54,12.00
2011,04,26,15,55,12.00
2011,04,26,15,56,12.10
2011,04,26,15,57,12.20
2011,04,26,15,58,12.30
2011,04,26,15,59,12.30
2011,04,26,16,00,12.40
2011,04,26,16,01,12.50
2011,04,26,16,02,12.60
2011,04,26,16,03,12.60
2011,04,26,16,04,12.60
2011,04,26,16,05,12.70
2011,04,26,16,06,12.70
2011,04,26,16,07,12.70
2011,04,26,16,08,12.70
2011,04,26,16,09,12.70
2011,04,26,16,10,12.70
2011,04,26,16,11,12.70
2011,04,26,16,12,12.70
2011,04,26,16,13,12.70
2011,04,26,16,14,12.60
2011,04,26,16,15,12.60
2011,04,26,16,16,12.50
2011,04,26,16,17,12.40
2011,04,26,16,18,12.40
2011,04,26,16,19,12.30
2011,04,26,16,20,12.30
2011,04,26,16,21,12.20
2011,04,26,16,22,12.20
2011,04,26,16,23,12.20
2011,04,26,16,24,12.20
2011,04,26,16,25,12.10
2011,04,26,16,26,12.10
2011,04,26,16,27,12.10
2011,04,26,16,28,12.10
2011,04,26,16,29,12.10
2011,04,26,16,30,12.00
2011,04,26,16,31,12.00
2011,04,26,16,32,12.00
2011,04,26,16,33,11.90
2011,04,26,16,34,11.90
2011,04,26,16,35,11.80
2011,04,26,16,36,11.70
2011,04,26,16,37,11.60
2011,04,26,16,38,11.60
2011,04,26,16,39,11.50
2011,04,26,16,40,11.50
2011,04,26,16,41,11.50
2011,04,26,16,42,11.60
2011,04,26,16,43,11.50
2011,04,26,16,44,11.50
2011,04,26,16,45,11.40
2011,04,26,16,46,11.40
2011,04,26,16,47,11.40
2011,04,26,16,48,11.30
2011,04,26,16,49,11.30
2011,04,26,16,50,11.20
2011,04,26,16,51,11.20
2011,04,26,16,52,11.20
2011,04,26,16,53,11.20
2011,04,26,16,54,11.30
2011,04,26,16,55,11.30
2011,04,26,16,56,11.40
2011,04,26,16,57,11.40
2011,04,26,16,58,11.50
2011,04,26,16,59,11.60
2011,04,26,17,00,11.60
2011,04,26,17,01,11.60
2011,04,26,17,02,11.70
2011,04,26,17,03,11.60
2011,04,26,17,04,11.60
2011,04,26,17,05,11.70
2011,04,26,17,06,11.70
2011,04,26,17,07,11.70
2011,04,26,17,08,11.80
2011,04,26,17,09,11.80
2011,04,26,17,10,11.80
2011,04,26,17,11,11.80
2011,04,26,17,12,11.80
2011,04,26,17,13,11.90
2011,04,26,17,14,11.90
2011,04,26,17,15,11.90
2011,04,26,17,16,11.90
2011,04,26,17,17,11.90
2011,04,26,17,18,11.90
2011,04,26,17,19,11.90
2011,04,26,17,20,11.80
2011,04,26,17,21,11.80
2011,04,26,17,22,11.80
2011,04,26,17,23,11.80
2011,04,26,17,24,11.80
2011,04,26,17,25,11.80
2011,04,26,17,26,11.80
2011,04,26,17,27,11.80
2011,04,26,17,28,11.80
2011,04,26,17,29,11.80
2011,04,26,17,30,11.80
2011,04,26,17,31,11.80
2011,04,26,17,32,11.80
2011,04,26,17,33,11.80
2011,04,26,17,34,11.90
2011,04,26,17,35,11.90
2011,04,26,17,36,12.00
2011,04,26,17,37,12.00
2011,04,26,17,38,12.10
2011,04,26,17,39,12.10
2011,04,26,17,40,12.20
2011,04,26,17,41,12.20
2011,04,26,17,42,12.20
2011,04,26,17,43,12.20
2011,04,26,17,44,12.20
2011,04,26,17,45,12.20
2011,04,26,17,46,12.10
2011,04,26,17,47,12.10
2011,04,26,17,48,12.00